STARLINK-2646 (48642 NORAD) Tracking and Keplerian Element Data

This shows tracking and keplerian element data for the satellite.

Feedback or suggestion? Click here.




ElementValue
Catalog48642
NameSTARLINK-2646
Epoch Orbit1078
Epoch Day211.04476995
Epoch Year2021
RAAN119.7798
Inclination53.0546
Eccentricity0.000146
Argument of Perigee75.1786
Mean Anonmoly284.9364
Mean Motion15.06422897
Decay Rate2.04E-05
L11 48642U 21044E 21211.04476995 .00002040 00000-0 15573-3 0 9996
L22 48642 53.0546 119.7798 0001460 75.1786 284.9364 15.06422897 10782

Live tracking and technical data element details for STARLINK-2646 (NORAD 48642). STARLINK-2646 can be tracked NOW for your location showing map with azimuth and elevation plus other details from your city location.

Track the satellite on the map from your city or location and see movement details for azimuth, elevation, latitude, longitude, range, height, and movement on the map or in text.







IsCatalogInMostPopularTable: catalog: 48642, numindb: 16
Update: records affected: 1



GetName: 48642 STARLINK-2646

Hit Count: updated at: Sat, 31 Jul 2021 14:45:57 GMT